Dewpoint
-6 -7 -7 -8 -7 -7 -6 -6 -6 -7 -7 -7 -7 -5 -4 -3 -7 -9 7 11 13 12 12 11 12 13 14 12 12 12 11 11
-5 -6 -6 -6 -6 -6 -6 -6 -6 -6 -6 -6 -6 -5 -4 -4 -6 -10 -3 10 11 13 12 12 12 13 12 12 13 12 12 11
-5 -5 -6 -6 -6 -6 -6 -6 -6 -6 -6 -5 -5 -5 -3 -4 -4 -9 -6 5 11 12 13 12 12 13 13 12 12 12 12 11
-4 -5 -6 -6 -6 -6 -6 -6 -6 -6 -5 -5 -4 -4 -4 -1 -2 -3 -1 6 6 12 13 12 11 12 13 12 12 12 12 11
-5 -6 -6 -6 -6 -6 -6 -5 -5 -4 -4 -4 -3 -3 -3 -2 -0 -0 -2 5 7 8 12 13 12 11 13 12 12 12 12 10
-6 -6 -6 -6 -6 -6 -5 -5 -4 -4 -3 -2 -2 -1 -1 1 -0 0 -0 -2 3 7 9 12 13 12 12 12 13 13 12 11
-6 -6 -6 -6 -6 -5 -5 -5 -4 -4 -4 -3 -2 -1 -0 1 1 -1 -0 -1 -3 -1 7 9 12 12 12 13 12 13 12 12
-6 -6 -6 -6 -6 -5 -5 -5 -4 -4 -3 -2 -2 -1 0 1 2 1 1 -1 -2 -1 -0 6 10 12 12 13 13 13 12 12
-6 -6 -6 -6 -6 -5 -5 -5 -5 -4 -4 -3 -2 -1 1 1 3 3 1 -1 -3 3 2 2 8 8 13 12 13 13 13 13
-5 -5 -5 -5 -6 -5 -5 -5 -4 -5 -4 -3 -2 -1 1 3 3 5 6 2 1 7 5 1 3 6 12 12 12 13 13 12
-5 -6 -5 -5 -5 -5 -5 -5 -5 -5 -4 -4 -3 -2 0 2 3 4 7 7 8 8 3 3 7 12 10 12 12 12 11 12
-5 -6 -6 -6 -5 -5 -5 -5 -5 -5 -5 -5 -4 -4 -1 0 2 5 6 7 8 8 7 6 6 9 11 12 12 12 11 11
-7 -7 -6 -7 -7 -5 -5 -5 -4 -5 -5 -5 -5 -5 -4 -2 1 2 5 7 7 7 6 4 7 9 9 12 12 12 11 12
-8 -8 -7 -6 -7 -8 -6 -5 -5 -4 -5 -5 -6 -6 -6 -5 -2 1 3 5 6 6 7 7 5 5 5 10 11 7 11 11
-8 -8 -8 -8 -7 -9 -9 -8 -5 -5 -5 -6 -6 -6 -6 -6 -5 -1 2 4 6 5 6 5 7 6 5 5 7 5 6 9
-8 -8 -8 -9 -9 -9 -9 -11 -9 -7 -6 -5 -5 -5 -6 -6 -5 -2 -1 2 2 3 3 3 3 4 3 5 5 5 6 6
-8 -8 -9 -9 -10 -10 -11 -10 -12 -13 -11 -8 -7 -6 -6 -6 -5 -4 -2 -1 0 1 1 1 1 -1 -1 1 3 3 3 2
-9 -9 -9 -9 -10 -10 -9 -11 -11 -13 -15 -17 -14 -10 -9 -8 -7 -8 -8 -6 -2 -1 -0 -0 -0 -1 -1 -1 0 1 1 2
-9 -9 -10 -10 -10 -11 -11 -10 -12 -14 -14 -18 -20 -20 -17 -14 -11 -10 -9 -10 -10 -10 -9 -9 -8 -7 -6 -4 -4 -4 -4 -3
Wind_Speed
31 33 35 37 39 39 38 41 44 41 40 41 44 37 32 26 30 33 34 40 42 40 38 42 41 38 37 34 31 31 29 27
32 36 38 39 40 40 40 41 42 44 37 38 42 43 39 32 31 34 34 36 42 43 44 42 44 42 39 38 35 34 32 29
36 39 40 42 44 43 43 42 41 40 34 31 36 39 41 40 30 36 34 38 35 42 45 46 46 45 42 42 40 38 36 33
38 41 42 43 43 44 43 41 41 39 34 32 32 34 41 38 36 33 33 32 40 35 49 49 47 46 46 45 43 41 41 38
37 40 44 44 42 39 39 39 39 38 33 34 30 33 37 37 39 37 39 32 35 41 38 48 51 49 50 47 44 42 42 42
38 40 41 40 38 37 37 36 36 35 33 30 30 32 32 34 39 41 38 40 32 39 45 39 55 54 55 50 49 46 47 43
35 35 37 38 37 36 36 35 35 36 33 31 27 28 31 33 37 41 40 40 43 36 40 43 53 51 57 57 52 50 49 46
35 36 38 37 38 37 37 36 35 34 30 26 23 24 26 28 27 35 38 39 41 37 35 35 46 31 54 55 53 49 48 48
31 33 35 35 36 36 36 33 35 32 27 23 21 20 23 26 24 27 32 32 34 25 29 32 31 39 55 54 55 51 50 48
30 32 33 35 36 37 35 35 33 32 29 21 18 17 16 19 20 19 24 21 20 22 23 31 41 33 50 54 52 49 51 44
28 31 33 34 35 36 33 34 34 34 31 26 17 15 11 9 17 19 14 19 22 22 20 23 18 38 55 54 50 48 42 45
27 29 31 35 36 37 36 37 36 39 38 32 29 20 4 3 9 19 16 19 15 9 4 14 20 20 37 48 46 41 41 39
24 27 31 36 38 40 39 38 38 39 40 34 33 31 24 19 21 26 26 25 23 22 18 25 9 21 23 45 38 39 41 39
23 27 30 34 38 40 40 38 37 37 41 39 38 37 33 32 35 33 36 33 31 29 24 20 8 15 17 26 30 23 32 30
22 25 29 32 34 36 40 39 38 37 37 40 40 41 40 39 42 45 41 36 32 36 35 29 28 20 19 25 17 12 18 18
19 23 25 29 32 34 36 39 39 39 38 38 41 42 44 44 50 52 49 45 43 41 31 25 31 26 25 20 16 14 11 17
16 19 21 25 29 31 34 36 39 41 41 41 38 39 41 46 47 48 49 48 45 46 44 41 43 32 28 27 21 18 19 18
13 15 19 20 23 27 30 32 34 39 42 42 43 43 43 44 43 45 46 47 44 42 42 35 30 31 28 28 22 21 21 19
9 9 12 14 16 21 24 28 32 36 40 40 41 41 40 39 40 40 40 43 43 43 39 33 32 31 28 26 24 25 24 23
Wind_Direction
345 342 339 333 329 326 319 313 311 303 291 278 269 261 256 252 254 257 255 255 239 230 232 229 226 222 223 218 216 211 207 205
346 346 343 337 334 331 327 320 312 310 302 286 273 262 254 249 246 248 256 254 249 234 230 231 228 222 219 218 217 216 208 204
347 348 345 343 338 336 332 327 321 316 308 291 281 274 258 257 247 244 247 252 251 244 231 231 229 224 220 218 216 213 213 205
349 347 345 342 340 337 333 329 327 324 315 300 285 278 269 259 253 238 242 246 249 250 232 230 231 227 223 218 216 213 210 210
350 347 345 343 341 337 334 332 329 327 321 309 294 285 276 264 257 245 239 243 243 247 251 233 232 229 224 220 216 216 214 214
352 349 344 342 343 340 339 333 329 331 320 308 298 288 279 273 258 253 242 245 245 239 246 248 236 232 228 224 220 217 218 218
353 349 347 347 347 345 343 339 335 332 321 307 297 295 289 281 272 257 252 249 250 253 247 242 233 232 230 227 226 220 219 220
356 354 353 352 352 352 351 347 342 339 328 311 301 289 286 282 280 262 260 251 258 272 277 260 254 235 232 230 225 220 220 218
359 359 358 358 360 358 359 357 357 353 337 323 311 296 281 279 274 271 264 261 265 280 279 267 252 267 222 226 225 219 217 216
0 4 4 5 6 4 4 4 4 2 0 345 323 308 288 275 267 256 255 249 253 256 275 279 256 265 218 219 223 224 220 223
5 9 10 13 14 12 11 15 15 18 16 14 0 334 306 274 255 241 228 225 222 232 253 274 315 224 215 218 219 223 220 218
8 10 17 18 22 21 19 21 24 26 26 27 25 25 38 110 175 221 210 190 167 165 213 237 264 213 205 206 212 219 224 224
16 16 19 25 25 29 25 26 30 33 37 39 38 39 60 81 102 119 154 161 143 109 82 47 176 207 170 198 197 209 215 214
24 23 24 29 28 31 31 30 34 37 41 45 39 38 48 59 89 95 95 101 108 103 107 91 81 25 124 156 175 157 193 196
28 25 25 31 32 32 34 35 39 40 44 47 50 47 45 55 68 85 91 96 97 93 88 95 104 92 70 87 119 114 112 154
32 28 25 28 30 32 37 37 39 42 45 48 49 52 53 54 67 75 75 77 78 81 86 90 83 77 71 62 88 96 77 89
32 34 31 28 28 30 33 36 37 40 42 45 49 55 58 58 59 66 73 76 76 73 71 71 69 69 73 77 74 72 75 75
33 34 36 30 31 31 33 33 37 40 41 42 42 44 49 52 56 59 61 64 68 72 68 68 71 64 60 60 61 61 61 61
38 29 39 40 33 35 37 34 37 38 39 42 42 42 45 47 52 56 60 62 64 68 71 71 73 69 65 62 60 61 62 61
Height
1494 1490 1486 1482 1479 1476 1472 1465 1458 1454 1453 1450 1446 1447 1448 1448 1448 1450 1451 1452 1454 1457 1461 1464 1468 1471 1476 1480 1483 1486 1490 1494
1495 1490 1484 1478 1475 1470 1464 1457 1451 1445 1444 1440 1436 1434 1435 1437 1439 1441 1442 1444 1446 1449 1453 1456 1461 1462 1467 1472 1477 1481 1484 1489
1492 1486 1481 1475 1470 1463 1456 1449 1444 1439 1436 1431 1428 1424 1424 1424 1429 1432 1433 1436 1438 1442 1444 1449 1452 1457 1460 1463 1468 1473 1479 1483
1489 1483 1478 1472 1465 1457 1451 1445 1438 1433 1429 1423 1419 1416 1413 1415 1417 1421 1424 1425 1431 1434 1434 1440 1445 1450 1452 1455 1461 1465 1470 1476
1489 1480 1472 1466 1461 1456 1449 1441 1434 1427 1422 1416 1413 1408 1403 1406 1407 1411 1414 1418 1421 1426 1426 1429 1435 1439 1442 1447 1454 1458 1464 1469
1486 1478 1473 1468 1461 1453 1445 1438 1431 1424 1417 1411 1406 1401 1398 1396 1396 1399 1406 1408 1412 1416 1420 1421 1425 1431 1434 1440 1445 1450 1455 1461
1489 1482 1475 1466 1459 1452 1443 1434 1425 1417 1410 1404 1400 1395 1391 1389 1388 1391 1395 1399 1402 1407 1410 1411 1414 1423 1427 1430 1438 1443 1446 1453
1489 1481 1472 1465 1457 1449 1440 1431 1422 1414 1405 1398 1393 1388 1385 1382 1383 1383 1385 1390 1393 1398 1401 1401 1399 1401 1418 1424 1431 1437 1438 1444
1491 1483 1475 1467 1457 1448 1440 1432 1422 1413 1402 1394 1387 1383 1378 1377 1376 1378 1379 1383 1388 1392 1397 1398 1402 1404 1410 1415 1424 1430 1432 1438
1492 1484 1477 1468 1458 1450 1441 1432 1423 1411 1400 1389 1383 1378 1372 1370 1370 1371 1372 1377 1384 1386 1387 1383 1387 1385 1388 1408 1417 1422 1427 1431
1494 1486 1479 1470 1461 1452 1443 1433 1423 1411 1400 1389 1381 1375 1369 1365 1366 1367 1368 1372 1377 1381 1380 1381 1374 1380 1381 1398 1409 1417 1424 1429
1494 1488 1481 1473 1463 1453 1444 1434 1423 1412 1401 1392 1386 1377 1370 1368 1364 1363 1364 1368 1372 1373 1379 1381 1384 1383 1388 1388 1401 1409 1419 1424
1495 1489 1483 1474 1465 1455 1447 1438 1428 1417 1406 1399 1393 1386 1375 1371 1365 1362 1361 1363 1367 1364 1369 1372 1381 1379 1372 1385 1394 1402 1412 1412
1496 1491 1484 1476 1469 1461 1454 1445 1435 1426 1414 1408 1402 1394 1384 1379 1367 1365 1360 1363 1364 1366 1368 1374 1385 1389 1390 1373 1390 1401 1402 1405
1498 1493 1487 1480 1473 1467 1460 1453 1446 1437 1428 1418 1413 1404 1392 1385 1376 1367 1365 1364 1366 1369 1373 1382 1385 1394 1393 1380 1392 1400 1387 1396
1500 1496 1490 1483 1477 1471 1465 1459 1452 1445 1437 1429 1417 1404 1405 1394 1380 1373 1377 1375 1375 1372 1377 1385 1387 1392 1394 1395 1395 1401 1398 1393
1501 1498 1493 1487 1480 1475 1470 1464 1458 1450 1441 1435 1430 1424 1414 1402 1396 1393 1389 1388 1385 1377 1386 1393 1384 1411 1412 1402 1403 1407 1400 1401
1503 1500 1495 1491 1484 1479 1473 1470 1464 1456 1448 1440 1432 1425 1419 1415 1409 1405 1399 1391 1385 1386 1382 1400 1412 1413 1412 1410 1411 1409 1403 1403
1504 1502 1497 1493 1488 1483 1477 1474 1468 1460 1454 1447 1442 1438 1432 1429 1426 1421 1415 1410 1406 1399 1406 1416 1414 1419 1418 1416 1419 1415 1413 1416